User: anonymous   Login
Location: Veyrier
(46.1830°N, 6.2000°E)
Time: 07:35:43
(UTC+02:00)
Language:

Iridium 98 - Orbit

View from above orbital plane
View from above orbital plane
View from above satellite
View from above satellite

Ground track
Ground track

The orbit data is extracted from the following two-line orbital elements,

1 27451U 02031B   14297.43372034  .00000578  00000-0  19941-3 0  5559
2 27451 086.3966 066.3498 0002315 112.0061 335.7841 14.34212985652730
Epoch (UTC): 24 October 2014 10:24:33
Eccentricity: 0.0002315
inclination: 86.3966°
perigee height: 776 km
apogee height: 779 km
right ascension of ascending node: 66.3498°
argument of perigee: 112.0061°
revolutions per day: 14.34212985
mean anomaly at epoch: 335.7841°
orbit number at epoch: 65273

The dashed part of the orbit path shows where the satellite is in the earth's shadow,  

DLR